Find Starlink 11433

NORAD ID: 62008 Int'l Des: 2024-213 Owner: SPXS Country: US Constellation: starlink operational
別名: STARLINK-11433 [DTC] celestrak
LEOCIRCULAR

現在のビュー

3D地球を読み込み中...

About Starlink 11433

Starlink 11433 (NORAD 62008) is a starlink constellation satellite (v2 mini d2c) launched Nov 18, 2024 by SPXS of US. It operates in LEO, CIRCULAR orbit with a mass of 960.00 kg.

次回通過

Passes for default location (London). Set your location on the main map for personalized predictions.

高度履歴

Loading altitude history...

軌道要素

1 62008U 24213A 26235.66978106 .00069691 00000-0 57441-3 0 9994
2 62008 53.1573 297.9358 0001457 54.4733 305.6421 15.69745821101144
Epoch: Aug 23, 2026 • Age: 17 hours

現在のステータス

高度 364.5 km
遠地点 / 近地点 N/A
速度 7.70 km/s
衛星直下点 50.13°N, 61.44°W
打ち上げ日 Nov 18, 2024
運用期間 1.7 years
タイプ internet

技術仕様

分類 Payload
質量 960.00 kg
乾燥質量 910.00 kg
総質量 960.00 kg
長さ 0.30 m
直径 4.10 m
スパン 29.00 m
形状 Box + pan
製造者 SPXS
バスタイプ Starlink V2MD
フェーズステータス In Orbit
所有者/国 SPXS/US

Most Searched